{"data":{"norad_id":63249,"epoch":"2026-09-22T22:11:01.846752Z","epoch_age_seconds":99110,"freshness":"FRESH","line1":"1 63249U 25052AR  26265.92432693  .00003163  00000+0  27346-3 0  9994","line2":"2 63249  97.6743 156.3544 0000989 217.6766 142.4387 14.97902478 83293","mean_motion":14.97902478,"eccentricity":9.89e-5,"inclination_deg":97.6743,"raan_deg":156.3544,"arg_perigee_deg":217.6766,"mean_anomaly_deg":142.4387,"bstar":0.00027346,"rev_number":8329,"period_min":96.134429387065,"perigee_km":572.69077704069,"apogee_km":574.06578676345,"semimajor_km":6951.5152819021,"source":"CELESTRAK","updated_at":"2026-09-23T09:00:21.936904Z"}}